Volver al catálogo

STARLINK-35309

ActivoComunicacionesVLEO
NORAD 66323·PAYLOAD·🇺🇸 United States

Lanzado Nov 6, 2025 desde Cape Canaveral Space Force Station

Loading…

Próximos Pases (próximas 24 horas)

TLE

ActualizadoSource: CelesTrak SupGP

Época: Sep 15, 2026, 03:19 UTC

1 66323C 25253E   26258.13868056 -.00041015  00000+0 -14858-2 0  2585
2 66323  42.9995 222.9392 0001056 269.9159 112.6027 15.27594146    16

Sigue STARLINK-35309 en tiempo real con AllMySat

Download on the App Store